Home > Weather > Decatur > Past weeks

Flag for USA Past Weather in Decatur, Illinois, USA — Yesterday and Last 2 Weeks

Now
65 °F

Clear.


Feels Like: 65 °F
Forecast: 62 / 85 °F
Wind: No wind

Location: Decatur Airport

Current Time: May 30, 2016 at 1:51:52 AM

Latest Report: May 30, 2016 at 12:54 AM


Visibility: 10 mi

Pressure: 30.03 "Hg

Humidity: 76%

Dew Point: 57 °F

Location of DecaturLocation

Past Weather in Decatur — Graph

°F

Decatur Temperature Yesterday

Maximum temperature yesterday: 84 °F (at 1:54 PM)
Minimum temperature yesterday: 65 °F (at 4:54 AM)
Average temperature yesterday: 75 °F

High & Low Weather Summary for the Past Weeks

 TemperatureHumidityPressure
High84 °F (May 22, 2:54 PM)94% (May 29, 4:54 AM)30.25 "Hg (May 29, 4:54 AM)
Low41 °F (May 18, 5:54 AM)26% (May 22, 4:54 PM)29.83 "Hg (May 27, 4:54 PM)
Average65 °F63%30.05 "Hg
* Reported May 15 12:54 AM — May 30 12:54 AM, Decatur, Weather by CustomWeather, © 2016

Note: Actual official high and low records may vary slightly from our data, if they occured in-between our weather recording intervals... More about our weather records

Advertising

Decatur Weather History for the Previous 24 Hours

Scroll right to see more
 ConditionsComfort  
Time TempWeatherWind HumidityBarometerVisibility
12:54 AM
Mon, May 30
65 °FClear.No wind76%30.03 "Hg10 mi
11:54 PM
Sun, May 29
67 °FClear.No wind73%30.03 "Hg10 mi
10:54 PM67 °FClear.No wind76%30.03 "Hg10 mi
9:54 PM73 °FClear.6 mph55%30.03 "Hg10 mi
8:54 PM76 °FSunny.5 mph48%30.01 "Hg10 mi
7:54 PM79 °FSunny.7 mph44%30.01 "Hg10 mi
6:54 PM81 °FSunny.9 mph41%30.01 "Hg10 mi
5:54 PM83 °FSunny.12 mph34%30.01 "Hg10 mi
4:54 PM84 °FPassing clouds.10 mph35%30.02 "Hg10 mi
3:54 PM83 °FPassing clouds.13 mph38%30.03 "Hg10 mi
2:54 PM84 °FSunny.13 mph37%30.04 "Hg10 mi
1:54 PM84 °FSunny.14 mph40%30.04 "Hg10 mi
12:54 PM83 °FBroken clouds.9 mph43%30.06 "Hg10 mi
11:54 AM82 °FScattered clouds.12 mph46%30.06 "Hg10 mi
10:54 AM81 °FSunny.12 mph51%30.06 "Hg10 mi
9:54 AM79 °FSunny.10 mph54%30.06 "Hg10 mi
8:54 AM76 °FSunny.9 mph64%30.06 "Hg10 mi
7:54 AM73 °FSunny.8 mph76%30.05 "Hg10 mi
6:54 AM69 °FSunny.6 mph84%30.03 "Hg10 mi
5:54 AM66 °FClear.6 mph90%30.03 "Hg10 mi
4:54 AM65 °FClear.6 mph94%30.01 "Hg10 mi
3:54 AM67 °FClear.6 mph90%30.01 "Hg10 mi
2:54 AM68 °FClear.6 mph90%30.00 "Hg10 mi
1:54 AM69 °FClear.7 mph87%29.99 "Hg10 mi
Weather by CustomWeather, © 2016

See weather overviewHow to use our weather pages